Location: La Larderie
(48.2113°N, 1.2950°W)
Time: 12:04:18
(UTC+00:00)

Daily predictions for brighter satellites

Satellite Brightness Start Highest point End
(mag) Time Altitude Azimuth Time Altitude Azimuth Time Altitude Azimuth
Ariane Rocket 3.1 20:14:00 10° SSE 20:19:04 89° ENE 20:24:10 10° NNW
GEOS 3 Rocket 4.3 20:16:10 10° NE 20:21:20 62° NW 20:26:23 10° WSW
Cosmos 1437 4.3 20:18:55 10° NNW 20:21:25 30° W 20:23:52 10° SSW
SL-16 R/B 3.2 20:17:07 10° NNW 20:22:20 35° NE 20:27:30 10° ESE
Cosmos 1782 4.4 20:23:40 10° NNE 20:26:43 20° ENE 20:29:44 10° ESE
Cosmos 371 Rocket 3.3 20:22:32 10° NNW 20:27:22 73° ENE 20:32:11 10° SSE
ARIANE 5 R/B 4.0 20:27:18 10° ESE 20:30:59 26° ENE 20:34:40 10° N
Cosmos 1271 Rocket 3.8 20:29:48 10° N 20:33:23 31° ENE 20:36:55 10° SE
USA 276 2.1 20:32:04 10° WNW 20:35:14 82° NNE 20:38:24 10° ESE
BREEZE-M DEB (TANK) 2.2 20:33:45 10° WNW 20:36:27 70° SSW 20:42:47 10° ESE
SPOT 1/Viking Rocket 3.8 20:31:58 10° SSE 20:37:03 56° ENE 20:42:09 10° N
Cosmos 1076 Rocket 3.5 20:34:10 10° S 20:38:30 75° E 20:42:52 10° NNE
Cosmos 1697 Rocket 4.1 20:33:31 10° NW 20:38:37 35° WSW 20:43:41 10° S
ATLAS 5 CENTAUR R/B 4.3 20:37:03 10° NNW 20:40:19 17° NNE 20:43:55 10° ENE
Cosmos 1151 Rocket 4.4 20:36:46 10° NNE 20:40:21 24° ENE 20:43:40 11° ESE
OBJECT-B 3.6 20:39:22 10° SW 20:41:31 17° W 20:43:41 10° NW
ATLAS 2AS CENTAUR R/B 3.4 20:36:18 10° SW 20:44:13 73° NW 20:51:55 10° NE
Cosmos 1833 Rocket 4.2 20:43:59 10° WSW 20:49:18 42° NW 20:54:40 10° NNE
ATLAS 3B R/B 3.0 20:42:25 10° NW 20:49:29 72° SW 20:56:42 10° SSE
Terra 3.2 20:47:56 11° ESE 20:51:37 26° ENE 20:55:31 10° N
SPOT 5 3.6 20:50:48 13° SE 20:54:10 33° ENE 20:58:07 10° N
Cosmos 2082 Rocket 2.6 20:50:14 10° SW 20:55:50 67° WNW 21:01:31 10° NNE
Cosmos 1092 Rocket 4.1 20:50:23 10° S 20:56:30 59° E 21:02:42 10° NNE
Meteor 2-19 Rocket 4.4 20:50:37 10° S 20:56:35 67° E 21:02:36 10° NNE
Cosmos 1633 3.3 20:54:19 10° SSW 20:57:51 56° WNW 21:01:26 10° N
Cosmos 2278 4.3 20:53:09 10° NW 20:58:40 56° WSW 21:04:10 10° S
BREEZE-M DEB (TANK) 1.5 20:58:35 10° WSW 21:01:26 85° SSE 21:03:12 11° ENE
ERS-1 Rocket 3.5 21:00:35 14° SE 21:04:33 46° ENE 21:09:21 10° N
Cosmos 332 Rocket 3.8 20:59:47 10° NNW 21:04:43 87° WSW 21:08:58 14° SSE
Cosmos 1606 4.4 21:02:13 10° NNW 21:05:36 32° W 21:08:59 10° SSW
Cosmos 2360 Rocket 3.2 21:00:33 10° NNW 21:05:42 35° NE 21:10:08 13° ESE
Cosmos 158 Rocket 3.9 21:02:21 10° SSW 21:07:28 77° ESE 21:12:47 10° NNE
Cosmos 2026 Rocket 4.1 21:03:16 10° S 21:09:28 60° E 21:15:38 10° NNE
GP-B 3.2 21:08:12 10° N 21:12:37 60° E 21:16:13 15° SSE
ISS -2.8 21:11:02 10° WNW 21:14:11 36° SW 21:15:56 21° SSE
Cosmos 2333 Rocket 3.8 21:11:25 10° N 21:16:01 24° NE 21:20:35 10° E
Nadezhda 4 Rocket 4.5 21:10:57 10° SSW 21:17:04 63° WNW 21:23:17 10° N
Meteor 1-26 Rocket 4.3 21:12:52 10° N 21:18:53 87° E 21:23:55 14° S
Spot 2 Rocket 3.5 21:14:48 15° SSE 21:19:06 84° ENE 21:24:15 10° NNW
SPOT 3 Rocket 4.3 21:14:53 10° S 21:19:58 51° W 21:25:04 10° NNW
Cosmos 1812 3.5 21:17:34 10° N 21:21:10 36° ENE 21:23:04 22° SE
Cosmos 2112 Rocket 4.4 21:17:49 13° S 21:22:17 42° ESE 21:27:14 10° NE
Cosmos 1680 Rocket 3.7 21:17:40 10° S 21:22:44 49° ESE 21:27:48 10° NNE
Cosmos 220 Rocket 4.4 21:18:59 10° NNW 21:23:14 52° ENE 21:25:50 22° SE
CZ-2C R/B 3.7 21:20:08 10° NNE 21:24:42 84° WNW 21:29:10 10° SSW
Cosmos 1627 Rocket 4.5 21:18:46 10° S 21:25:07 80° E 21:31:25 10° N
Cosmos 1980 Rocket 3.8 21:22:08 10° NW 21:26:51 28° WSW 21:31:33 10° SSW
Okean 3 Rocket 3.8 21:24:58 19° SSE 21:28:00 51° E 21:32:23 10° NNE
USA 245 4.1 21:25:06 12° S 21:29:46 61° WSW 21:33:55 10° NNW
USA 234 4.1 21:24:56 10° E 21:31:09 47° NNE 21:37:22 10° WNW
Cosmos 1933 4.3 21:33:06 10° NNW 21:36:58 44° W 21:40:22 13° SSW
Cosmos 2322 Rocket 2.2 21:32:30 10° NNW 21:38:11 87° ENE 21:41:46 23° SSE
Cosmos 1428 Rocket 4.5 21:32:43 10° S 21:38:52 85° W 21:45:02 10° N
Resurs 01 Rocket 3.7 21:37:53 10° SW 21:41:22 22° W 21:44:54 10° NW
Cosmos 1408 Rocket 4.2 21:40:12 27° SE 21:41:54 37° E 21:45:55 10° NNE
Cosmos 2151 4.3 21:39:18 10° SW 21:43:16 39° WNW 21:47:19 10° N
Meteor 2-14 Rocket 4.5 21:43:59 19° S 21:48:31 65° E 21:54:37 10° NNE
CARTOSAT-1 4.3 21:46:36 17° S 21:49:42 48° W 21:53:55 10° NNW
Cosmos 2084 3.5 21:48:51 22° S 21:51:08 47° SE 21:55:08 10° NE
Cosmos 1553 Rocket 3.9 21:45:31 10° N 21:51:38 84° E 21:55:36 23° SSE
CZ-4B DEB 4.3 21:53:29 45° SE 21:54:11 60° ENE 21:57:20 10° N
Meteor 2-3 Rocket 4.4 21:48:44 10° SSW 21:54:16 54° WNW 21:59:55 10° N
Gbstr 26 Del rocket 3.3 21:50:41 10° WNW 21:54:16 43° SSW 21:55:27 33° S
Cosmos 2266 Rocket 4.4 21:53:29 25° SE 21:56:34 44° E 22:02:24 10° NNE
Cosmos 1862 3.3 21:57:03 34° SSE 21:58:38 66° E 22:02:35 10° NNE
Cosmos 2219 Rocket 3.2 21:54:28 10° NNW 21:59:40 37° NE 22:02:58 20° ESE
Cosmos 1624 Rocket 3.9 21:55:04 10° NNW 22:00:19 90° ESE 22:02:57 30° SSE
Cosmos 1782 4.0 21:59:26 10° NNW 22:03:10 38° W 22:05:38 18° SSW
Cosmos 2228 Rocket 4.2 22:00:47 10° N 22:04:44 31° ENE 22:06:05 26° ESE
Cosmos 1515 Rocket 3.5 22:00:34 10° N 22:05:01 72° ENE 22:06:43 36° SSE
NOSS 2-1 (E) 3.0 22:05:22 50° ESE 22:05:22 50° ESE 22:08:36 10° NE
H-2A R/B 3.7 22:01:52 10° NNE 22:06:00 53° E 22:07:14 38° SSE
SL-16 R/B 2.9 22:01:10 10° NW 22:06:35 46° WSW 22:09:55 22° S
ARIANE 5 R/B 3.7 22:04:24 18° SSW 22:07:16 40° W 22:11:29 10° NNW
NOSS 3-1 (C) 4.2 22:01:20 10° NW 22:08:37 69° NE 22:14:30 22° SE
Cosmos 2333 4.5 22:03:52 10° NNW 22:09:24 57° ENE 22:12:13 28° SE
COSMOS 2455 3.6 22:09:10 29° SE 22:10:32 32° ESE 22:15:46 10° NE
Cosmos 2237 4.3 22:05:10 10° NNW 22:10:52 71° WSW 22:13:45 30° S
USA 276 3.5 22:08:28 10° W 22:10:46 26° SW 22:10:46 26° SW
Cosmos 1420 Rocket 4.0 22:05:58 10° NNW 22:11:19 77° ENE 22:13:43 34° SSE
COSMOS 2428 3.6 22:09:04 10° NNW 22:14:26 39° NE 22:17:35 22° ESE
Meteor 2-6 Rocket 4.2 22:10:37 10° NNW 22:16:01 70° W 22:18:52 28° S
Cosmos 1655 Rocket 4.0 22:12:44 27° S 22:16:20 68° E 22:22:42 10° NNE
Cosmos 1151 Rocket 4.2 22:14:00 10° NNW 22:18:00 37° W 22:20:30 20° SSW
Cosmos 1766 Rocket 4.4 22:14:49 15° SSW 22:18:13 47° WNW 22:22:29 10° N
S3M 4.0 22:15:30 10° N 22:21:56 87° W 22:25:25 29° S
Cosmos 1328 Rocket 4.5 22:18:16 10° NNW 22:22:31 44° W 22:24:43 24° SSW
USA 229 DEB 4.3 22:15:40 10° NW 22:22:46 57° NE 22:28:16 20° ESE
USA 229 4.3 22:15:46 10° NW 22:22:52 56° NE 22:28:23 19° ESE
ATLAS 5 CENTAUR R/B 3.2 22:21:14 10° NNW 22:26:15 41° NE 22:30:39 17° ESE
Cosmos 1174 3.0 22:23:32 10° NW 22:26:29 81° NNE 22:26:29 81° NNE
Terra 2.6 22:26:49 26° SSW 22:29:08 45° W 22:33:43 10° NNW
Cosmos 1452 Rocket 3.8 22:25:36 10° NNW 22:30:49 60° ENE 22:32:49 36° SE
COSMOS 2487 3.8 22:31:49 25° ENE 22:31:49 25° ENE 22:33:52 10° NE
SPOT 5 4.2 22:30:02 18° SW 22:32:18 28° W 22:36:05 10° NW
ALOS 2 3.9 22:33:57 24° E 22:35:12 28° ENE 22:38:58 10° N
USA 267 3.2 22:32:38 10° ENE 22:39:05 58° SE 22:45:31 10° SW
Cosmos 2056 Rocket 4.3 22:35:15 10° NW 22:40:20 44° WSW 22:42:28 29° SSW
SL-27 R/B 3.1 22:39:50 35° WSW 22:41:01 54° WNW 22:44:34 10° NNE
Meteor 1-27 Rocket 3.7 22:36:19 10° NNW 22:41:59 89° W 22:44:14 39° S
NOSS 3-1 (A) 4.2 22:36:01 10° NW 22:43:19 70° NE 22:48:48 24° SE
NOSS 2-1 (C) 3.7 22:48:04 24° WSW 22:49:42 48° NW 22:53:03 10° NNE
Cosmos 2360 Rocket 2.8 22:44:29 10° NW 22:49:51 46° WSW 22:51:53 32° SSW
Cosmos 1805 Rocket 3.6 22:49:13 53° SE 22:49:51 60° E 22:54:14 10° NNE
IRIDIUM 104 4.2 22:45:22 10° N 22:50:38 87° E 22:52:18 45° S
Meteor 1-20 Rocket 4.4 22:54:51 42° SE 22:56:22 56° E 23:01:55 10° NNE
Cosmos 1110 Rocket 4.5 22:51:37 10° NNW 22:56:51 53° ENE 22:58:40 37° ESE
NOSS 2-1 (D) 4.1 22:55:30 20° WSW 22:57:26 41° NW 23:00:45 10° NNE
IRIDIUM 114 4.3 22:54:31 10° N 22:59:46 79° W 23:01:25 45° S
Cosmos 1833 4.4 22:56:03 20° SW 23:00:09 70° WNW 23:05:58 10° NNE
Cosmos 2333 Rocket 2.2 22:55:14 10° NNW 23:00:53 74° WSW 23:02:38 45° S
Cosmos 1500 Rocket 3.9 22:59:40 41° SW 23:00:59 61° WNW 23:05:24 10° N
Cosmos 1331 Rocket 4.4 22:57:08 10° NNW 23:02:17 53° ENE 23:03:58 38° ESE
IRIDIUM 103 4.5 23:03:43 10° N 23:08:54 66° W 23:10:33 42° SSW
Cosmos 972 Rocket 3.9 23:07:27 42° SSW 23:09:18 88° WNW 23:14:20 10° NNE
COBE Rocket 3.8 23:09:07 52° SSW 23:10:04 68° W 23:14:46 10° NNW
Cosmos 2322 3.8 23:05:25 10° NNW 23:11:07 66° WSW 23:12:44 45° S
NOSS 0 Rocket 4.2 23:07:07 10° NNW 23:13:20 63° NE 23:16:01 34° SE
USA 234 3.2 23:10:02 28° ESE 23:13:50 88° NNE 23:20:27 10° NW
Cosmos 468 4.4 23:16:09 53° S 23:17:20 76° ESE 23:22:35 10° NNE
Cosmos 2297 Rocket 3.5 23:17:11 23° ESE 23:17:24 23° ESE 23:21:46 10° NE
Lacrosse 5 3.7 23:21:59 18° E 23:21:59 18° E 23:23:54 10° ENE
Cosmos 2322 Rocket 4.2 23:18:09 10° WNW 23:21:25 16° W 23:23:35 13° WSW
Cosmos 2237 Rocket 2.9 23:16:01 10° NNW 23:21:31 47° NE 23:24:02 29° ESE
Cosmos 2084 Rocket 4.3 23:18:46 10° NNW 23:22:46 44° NE 23:24:07 33° E
Meteor 1-18 Rocket 4.4 23:19:22 10° N 23:25:15 69° ENE 23:26:57 46° SE
Cosmos 1500 3.8 23:26:57 47° ENE 23:26:57 47° ENE 23:30:17 10° NNE
Cosmos 2227 Rocket 3.6 23:28:53 22° ESE 23:29:07 22° E 23:33:20 10° NE
Sich 1 3.1 23:28:46 60° SW 23:29:21 70° W 23:33:42 10° N
Cosmos 2285 Rocket 4.2 23:24:27 10° NNW 23:30:38 59° WSW 23:32:33 42° SSW
Okean 1 3.2 23:27:44 10° N 23:31:47 89° ENE 23:31:47 89° ENE
Meteor 1-25 Rocket 4.1 23:30:16 47° SSW 23:31:56 84° WNW 23:37:33 10° N
Cosmos 1633 Rocket 3.1 23:33:06 63° ESE 23:33:14 63° E 23:37:34 10° NNE
Cosmos 494 Rocket 3.8 23:33:16 58° SSW 23:34:18 85° ESE 23:39:28 10° NNE
Cosmos 1666 Rocket 3.4 23:37:07 76° SSE 23:37:25 85° E 23:41:54 10° N
Cosmos 1048 Rocket 4.1 23:39:39 43° SW 23:41:14 68° WNW 23:46:22 10° NNE
Cosmos 2228 Rocket 4.4 23:39:04 10° NNW 23:42:52 29° W 23:43:34 27° WSW
Cosmos 2219 Rocket 2.7 23:38:26 10° NW 23:43:41 42° WSW 23:44:40 39° SW
SL-08 R/B 4.4 23:45:16 48° S 23:47:09 81° E 23:53:20 10° N
Meteor 1-19 Rocket 4.2 23:42:40 10° NNW 23:48:17 69° W 23:49:32 51° SSW
SL-16 R/B 3.7 23:43:38 10° NNW 23:48:38 31° NE 23:52:42 14° ESE
Cosmos 1269 Rocket 4.4 23:50:05 44° ESE 23:50:34 45° ESE 23:55:35 10° NNE
Cosmos 1602 4.4 23:52:57 45° W 23:53:04 45° WNW 23:56:47 10° N
